Location: Benque
(43.2594°N, 0.9178°E)
Time: 03:54:05
(UTC+00:00)

Cosmos 1758 Rocket - Pass Details

Date: 24 January 2020
Orbit: 603 x 635 km, 82.5° (Epoch: 16 February)

Event Time Altitude Azimuth Distance (km) Brightness Sun altitude
Rises 18:11:21 0° 198° (SSW) 2,843 7.4 -13.6°
Reaches altitude 10° 18:13:35 10° 203° (SSW) 1,943 6.6 -13.9°
Maximum altitude 18:17:48 55° 281° (W) 732 4.3 -14.7°
Drops below altitude 10° 18:22:03 10° 359° (N) 1,959 6.0 -15.5°
Sets 18:24:19 0° 4° (N) 2,869 6.8 -15.9°
